Location: Avon Lake
(41.5219°N, 93.5010°W)
Time: 00:47:07
(UTC+00:00)

Tiangong - Pass Details

Date: 22 April 2024
Orbit: 372 x 375 km, 41.5° (Epoch: 20 May)

Event Time Altitude Azimuth Distance (km) Brightness Sun altitude
Rises 01:53:10 0° 262° (W) 2,261 2.8 -9.8°
Reaches altitude 10° 01:55:15 10° 262° (W) 1,403 1.6 -10.1°
Maximum altitude 01:58:25 86° 174° (S) 386 -2.2 -10.6°
Enters shadow 02:00:58 15° 86° (E) 1,153 -0.2 -11.1°
